Location: Kott?ru
(16.6209°N, 80.6208°E)
Time: 14:25:42
(UTC+00:00)

METEOR-M - Pass Details

Date: 18 September 2020
Orbit: 815 x 820 km, 98.5° (Epoch: 30 October)

Event Time Altitude Azimuth Distance (km) Brightness Sun altitude
Rises 23:18:29 0° 9° (N) 3,341 7.5 -17.0°
Reaches altitude 10° 23:20:49 10° 7° (N) 2,407 6.7 -16.4°
Maximum altitude 23:26:08 75° 283° (WNW) 847 4.0 -15.2°
Drops below altitude 10° 23:31:26 10° 199° (SSW) 2,401 6.3 -13.9°
Sets 23:33:47 0° 197° (SSW) 3,331 7.1 -13.4°
